Zurück zum Katalog

TISAT 1

AktivKommunikationPO
NORAD 36799·PAYLOAD·🇨🇭 Switzerland

Gestartet Jul 12, 2010 von Satish Dhawan Space Centre

Loading…

Nächste Überflüge (nächste 24 Stunden)

TLE

AktuellSource: Space-Track

Epoche: Sep 14, 2026, 07:50 UTC

1 36799U 10035E   26257.32691780  .00017541  00000-0  51999-3 0  9995
2 36799  98.0776 212.0433 0000782  37.1630 322.9665 15.34920533881369

Verfolge TISAT 1 in Echtzeit mit AllMySat

Download on the App Store